Regional Weather Roundup
Issued by NWS

Home | Current Version | Previous Version | Text Only | Print | Product List | Glossary Off
Versions: 1 2 3 4 5 6 7 8 9 10 11 12 13 14 15 16 17 18 19 20 21 22 23 24 25 26 27 28 29 30 31 32 33 34 35 36 37 38 39 40 41 42 43 44 45 46 47 48 49 50

000
ASUS45 KCYS 200710
RWRWY

WYOMING REGIONAL WEATHER ROUNDUP
NATIONAL WEATHER SERVICE CHEYENNE WY
1200 AM MST MON FEB 20 2017

NOTE:  "FAIR" INDICATES FEW OR NO CLOUDS BELOW 12,000 FEET
WITH NO SIGNIFICANT WEATHER AND/OR OBSTRUCTIONS TO VISIBILITY.

WYZ001-200800-
YELLOWSTONE NATIONAL PARK

CITY           SKY/WX    TMP DP  RH WIND       PRES   REMARKS
LK YELLOWSTONE   N/A     22  19  89 VRB7      29.84F WCI  13
W YELLOWSTONE  NOT AVBL

$$
WYZ002>013-054>058-071-098>099-200800-
NORTHERN WYOMING

CITY           SKY/WX    TMP DP  RH WIND       PRES   REMARKS
JACKSON        CLOUDY    28  28 100 S10       29.90R WCI  19
CODY           FAIR      40  17  39 W24G38    29.77R WCI  29
GREYBULL       FAIR      39  26  59 SE6       29.76R WCI  35
WORLAND        FAIR      34  32  92 SE8       29.78R WCI  27
SHERIDAN       CLOUDY    37  33  85 VRB7      29.69R WCI  32
BUFFALO        CLOUDY    37  32  82 SW9       29.70R WCI  30
GILLETTE       CLOUDY    41  37  86 NW15      29.67R
HULETT         CLOUDY    45  34  65 N9        29.66R
NEWCASTLE      FAIR      43  32  65 NW5       29.62R

$$
WYZ014>020-022>026-101>103-200800-
CENTRAL WYOMING

CITY           SKY/WX    TMP DP  RH WIND       PRES   REMARKS
BIG PINEY      FAIR      12   9  87 E8        29.93R WCI   0
PINEDALE       PTSUNNY   18  18 100 CALM      29.93S
DUBOIS         FAIR      23  14  68 NW14      29.84R WCI  11
LANDER         FAIR      40  12  32 NW13G28   29.81R WCI  32
RIVERTON       FAIR      32  19  58 W9        29.83R WCI  24
CASPER         FAIR      36  23  59 SW16      29.78R WCI  26
DOUGLAS        FAIR      43  25  49 W26G37    29.72R

$$
WYZ021-027>030-104>119-200800-
SOUTHERN WYOMING

CITY           SKY/WX    TMP DP  RH WIND       PRES   REMARKS
EVANSTON       FAIR      28  22  78 S6        29.95R WCI  22
FORT BRIDGER   FAIR      33  26  77 SW16      29.96S WCI  22
ROCK SPRINGS   FAIR      28  25  88 SW12      29.94F WCI  18
DIXON            N/A     26  25  94 N3        29.99S
RAWLINS        FAIR      30  24  78 W22       29.91R WCI  17
SARATOGA       FAIR      30  28  93 W16G23    29.92R WCI  19
LARAMIE        FAIR      30  18  60 W16       29.83R WCI  19
CHEYENNE       CLOUDY    42  17  36 NW24G33   29.76R
TORRINGTON     CLOUDY    47  30  51 W6        29.69R
PINE BLUFFS    CLOUDY    43  28  56 NW17G28   29.76R

$$



USA.gov is the U.S. government's official web portal to all federal, state and local government web resources and services.